Simultaneous Nadir Overpasses (SNOs) Predictions

Prediction of SNOs between LANDSAT-8 and METOP-A Satellite Orbit:

Table of predicted SNOs for the next 14.0 days since TLE Epoch: 6/16/2017
Index Date (LANDSAT-8) Time (LANDSAT-8) Lat,Lon (LANDSAT-8) SZA (LANDSAT-8 ) Date (METOP-A) Time (METOP-A) Lat,Lon (METOP-A) SZA (METOP-A ) Distance(km) Time Diff (sec)
1 06/17/2017 20:42:08 81.22, -89.02 60.11 06/17/2017 20:41:27 81.22, -88.85 60.11 2.92 41
2 06/17/2017 21:31:34 -81.23, 78.90 119.85 06/17/2017 21:32:06 -81.23, 79.05 119.82 2.66 32
3 06/20/2017 16:16:24 81.20, -22.90 60.01 06/20/2017 16:15:48 81.20, -22.93 60.00 0.66 36
4 06/20/2017 17:05:50 -81.22, 145.04 119.95 06/20/2017 17:06:27 -81.22, 145.00 119.93 0.76 37
5 06/23/2017 11:50:40 81.20, 43.56 60.02 06/23/2017 11:50:09 81.20, 43.37 59.98 3.28 31
6 06/23/2017 12:40:06 -81.22,-148.47 119.94 06/23/2017 12:40:47 -81.23,-148.29 119.90 3.20 41
7 06/26/2017 07:24:55 81.22, 110.37 60.13 06/26/2017 07:24:28 81.22, 110.41 60.12 0.82 27
8 06/26/2017 08:14:22 -81.22, -82.01 119.88 06/26/2017 08:15:08 -81.23, -81.98 119.85 0.72 46
9 06/29/2017 02:59:10 81.22, 176.78 60.23 06/29/2017 02:58:48 81.21, 176.67 60.21 1.88 22




NCC Satellite Simultaneous Nadir Overpasses (SNOs) Prediction Service
